Regional Weather Roundup
Issued by NWS Albany, NY

Home | Current Version | Previous Version | Text Only | Print | Product List | Glossary On
Versions: 1 2 3 4 5 6 7 8 9 10 11 12 13 14 15 16 17 18 19 20 21 22 23 24 25 26 27 28 29 30 31 32 33 34 35 36 37 38 39 40 41 42 43 44 45 46 47 48 49 50
000
ASUS41 KALY 210810
RWRALY

NEW YORK STATE HOURLY WEATHER ROUNDUP
NATIONAL WEATHER SERVICE ALBANY NY
300 AM EST FRI NOV 21 2014

NOTE: "FAIR" INDICATES FEW OR NO CLOUDS BELOW 12,000 FEET WITH NO
SIGNIFICANT WEATHER AND/OR NO OBSTRUCTIONS TO VISIBILITY.

NYZ032-033-038>043-046>054-057>066-NYZ062>081-210900-
EAST


CITY           SKY/WX    TMP DP  RH WIND       PRES   REMARKS
ALBANY         CLEAR     21  13  71 W3        30.00R
GLENS FALLS    CLEAR     22  17  81 S6        29.96R WCI  14
POUGHKEEPSIE   CLEAR     27   8  44 W7        30.05R WCI  19
MONTGOMERY     CLEAR     26   7  44 W8        30.04R WCI  18
WHITE PLAINS   CLEAR     27   7  42 W12G21    30.03R WCI  17
ISLIP          CLEAR     30   9  41 NW17G23   30.03R WCI  18
NEW YORK CITY  CLEAR     30   9  41 W15G22    30.08R WCI  19
CENTRAL PARK   CLEAR     30   8  39 MISG      30.10R
$$

NYZ005>009-017-018-044>046-055-056-210900-
CENTRAL


CITY           SKY/WX    TMP DP  RH WIND       PRES   REMARKS
FULTON         LGT SNOW  21  17  84 SW13      30.00S FOG     WCI   9
SYRACUSE       MOCLDY    23  11  60 SW18      30.02R WCI   9
ROME           LGT SNOW  22  18  85 W13       30.01R VSB 1   WCI  10
ELMIRA         PTCLDY    21  17  84 W6        30.06R WCI  13
BINGHAMTON     CLOUDY    19  10  68 W12       29.98R WCI   7
MONTICELLO     CLEAR     19   9  63 W13       29.98R WCI   7
$$

NYZ026>034-041>043-210900-
NORTH


CITY           SKY/WX    TMP DP  RH WIND       PRES   REMARKS
WATERTOWN      PTCLDY    22  13  68 NW6       30.00R WCI  14
FORT DRUM      NOT AVBL
MASSENA        PTCLDY    21  14  74 SW8       29.96R WCI  11
SARANAC LAKE   LGT SNOW  16  12  84 SW8       29.83R FOG     WCI   5
PLATTSBURGH    PTCLDY    22  13  68 SW6       29.90  WCI  14
$$

NYZ001>004-010>016-019>021-210900-
WEST


CITY           SKY/WX    TMP DP  RH WIND       PRES   REMARKS
NIAGARA FALLS  MOCLDY    19  10  68 W18       30.08R WCI   4
BUFFALO        PTCLDY    19   9  65 W14       30.08R WCI   6
DUNKIRK        CLOUDY    24  10  55 W12G26    30.12R WCI  13
JAMESTOWN      MOCLDY    18  10  73 W8        30.06R WCI   7
WELLSVILLE     MOCLDY    15   9  76 W12       30.01R WCI   2
ROCHESTER      CLEAR     19  10  68 W16       30.06R WCI   4
PENN YAN       CLEAR     20  11  68 W13       30.04R WCI   7
$$

             KEY
       WCI = WIND CHILL INDEX
       VSB = VISIBILITY
       HX  = HEAT INDEX
$$


USA.gov is the U.S. government's official web portal to all federal, state and local government web resources and services.